Location: Cahoon Acres
(40.8736°N, 111.8994°W)
Time: 05:46:34
(UTC+00:00)

Transit 2A Rocket - Visible Passes

Search period start: 06 June 2020 00:00
Search period end: 16 June 2020 00:00
Orbit: 585 x 918 km, 66.7° (Epoch: 05 June)

Date Brightness Start Highest point End Pass type
(mag) Time Alt. Az. Time Alt. Az. Time Alt. Az.
06 Jun 5.8 04:38:41 10° SW 04:43:37 53° NW 04:49:05 10° NNE visible
06 Jun 8.2 06:25:50 10° NW 06:27:41 12° NNW 06:29:34 10° NNW visible
07 Jun 5.0 03:55:58 10° SSW 04:00:59 90° WNW 04:06:35 10° NNE visible
07 Jun 7.9 05:41:06 10° W 05:44:30 17° NW 05:48:07 10° N visible
07 Jun 8.4 10:58:04 10° N 11:01:45 16° NE 11:05:26 10° ENE visible
08 Jun 7.4 04:57:12 10° W 05:01:29 25° NW 05:06:06 10° N visible
08 Jun 8.8 10:16:46 10° NNE 10:18:33 11° NNE 10:20:21 10° NE visible
09 Jun 6.6 04:13:48 10° WSW 04:18:36 39° NW 04:23:52 10° NNE visible
09 Jun 7.7 11:14:38 10° NNW 11:19:57 30° NE 11:25:14 10° ESE visible
10 Jun 5.6 03:30:50 10° SW 03:35:52 64° WNW 03:41:27 10° NNE visible
10 Jun 8.4 05:17:09 10° WNW 05:19:45 13° NW 05:22:27 10° N visible
10 Jun 8.3 10:32:30 10° N 10:36:58 21° NE 10:41:26 10° E visible
11 Jun 8.0 04:32:49 10° W 04:36:38 20° NW 04:40:42 10° N visible
11 Jun 8.6 09:50:41 10° N 09:53:52 14° NE 09:57:03 10° ENE visible
12 Jun 7.4 03:49:06 10° WSW 03:53:39 29° NW 03:58:35 10° NNE visible
12 Jun 7.0 10:49:19 10° NNW 10:55:01 39° NE 11:00:40 10° ESE visible
13 Jun 8.8 04:53:55 10° NW 04:55:03 11° NNW 04:56:13 10° NNW visible
13 Jun 7.7 10:07:05 10° N 10:12:08 26° NE 10:17:10 10° ESE visible
14 Jun 8.4 04:08:40 10° WNW 04:11:51 15° NW 04:15:10 10° N visible
14 Jun 8.2 09:25:02 10° N 09:29:07 18° NE 09:33:12 10° E visible
14 Jun 5.6 11:06:33 10° NNW 11:12:43 81° ENE 11:18:45 10° SSE visible
15 Jun 8.0 03:24:37 10° W 03:28:47 23° NW 03:33:14 10° N visible
15 Jun 8.4 08:43:23 10° N 08:45:57 13° NE 08:48:31 10° ENE visible
15 Jun 6.3 10:24:04 10° NNW 10:30:03 52° NE 10:35:55 10° SE visible
